,,,PA_Meas_PMT16A,,PR_Meas_QMR101_102,,RH_Meas_QMH101,,SR_Meas_QMS101,,TA_Meas_QMH101,,GenWind,,GenWind,
date,time,status,PA,status,PR,status,RH,status,SR,status,TA,status,DirAvg,status,SpdAvg,
2011-09-16, 00:00:04,VALID,1005.23,VALID,0,INVALID,163.685,VALID,0,VALID,25.1053,VALID,279,VALID,0,
2011-09-16, 00:01:04,VALID,1005.23,VALID,0,INVALID,163.693,VALID,0,VALID,25.0858,VALID,278,VALID,0,
2011-09-16, 00:02:04,VALID,1005.22,VALID,0,INVALID,163.723,VALID,0,VALID,25.0858,VALID,278,VALID,0,
2011-09-16, 00:03:04,VALID,1005.23,VALID,0,INVALID,163.67,VALID,0,VALID,25.045,VALID,280,VALID,0,
2011-09-16, 00:04:04,VALID,1005.21,VALID,0,INVALID,163.693,VALID,0,VALID,25.0858,VALID,280,VALID,0,
2011-09-16, 00:05:04,VALID,1005.21,VALID,0,INVALID,163.693,VALID,0,VALID,25.0644,VALID,280,VALID,0,
2011-09-16, 00:06:04,VALID,1005.2,VALID,0,INVALID,163.678,VALID,0,VALID,25.0858,VALID,280,VALID,0,
2011-09-16, 00:07:04,VALID,1005.22,VALID,0,INVALID,163.693,VALID,0,VALID,25.0644,VALID,279,VALID,0,
2011-09-16, 00:08:04,VALID,1005.28,VALID,0,INVALID,163.701,VALID,0,VALID,25.045,VALID,279,VALID,0,
2011-09-16, 00:09:04,VALID,1005.34,VALID,0,INVALID,163.685,VALID,0,VALID,25.0663,VALID,279,VALID,0,
2011-09-16, 00:10:04,VALID,1005.36,VALID,0,INVALID,163.685,VALID,0,VALID,25.0469,VALID,279,VALID,0,
2011-09-16, 00:11:04,VALID,1005.38,VALID,0,INVALID,163.708,VALID,0,VALID,25.0469,VALID,279,VALID,0,
2011-09-16, 00:12:04,VALID,1005.35,VALID,0,INVALID,163.678,VALID,0,VALID,25.0255,VALID,279,VALID,0,
2011-09-16, 00:13:04,VALID,1005.33,VALID,0,INVALID,163.67,VALID,0,VALID,25.0255,VALID,279,VALID,0,
2011-09-16, 00:14:04,VALID,1005.27,VALID,0,INVALID,163.685,VALID,0,VALID,25.0255,VALID,342,VALID,0,
2011-09-16, 00:15:04,VALID,1005.22,VALID,0,INVALID,163.693,VALID,0,VALID,25.0255,VALID,348,VALID,0,
2011-09-16, 00:16:04,VALID,1005.2,VALID,0,INVALID,163.693,VALID,0,VALID,24.9866,VALID,351,VALID,0,
2011-09-16, 00:17:04,VALID,1005.14,VALID,0,INVALID,163.693,VALID,0,VALID,24.9476,VALID,351,VALID,0,
2011-09-16, 00:18:04,VALID,1005.06,VALID,0,INVALID,163.716,VALID,0,VALID,24.9282,VALID,355,VALID,0,
2011-09-16, 00:19:04,VALID,1005.03,VALID,0,INVALID,163.67,VALID,0,VALID,24.9282,VALID,360,VALID,0,
2011-09-16, 00:20:04,VALID,1004.99,VALID,0,INVALID,163.716,VALID,0,VALID,24.9495,VALID,356,VALID,0,
2011-09-16, 00:21:04,VALID,1005.01,VALID,0,INVALID,163.716,VALID,0,VALID,24.9282,VALID,355,VALID,0,
2011-09-16, 00:22:04,VALID,1005.02,VALID,0,INVALID,163.678,VALID,0,VALID,24.9476,VALID,355,VALID,0,
2011-09-16, 00:23:04,VALID,1004.99,VALID,0,INVALID,163.685,VALID,0,VALID,24.9282,VALID,355,VALID,0,
2011-09-16, 00:24:04,VALID,1004.98,VALID,0,INVALID,163.693,VALID,0,VALID,24.9282,VALID,360,VALID,0,
2011-09-16, 00:25:04,VALID,1004.98,VALID,0,INVALID,163.678,VALID,0,VALID,24.9495,VALID,355,VALID,0,
2011-09-16, 00:26:04,VALID,1005.03,VALID,0,INVALID,163.708,VALID,0,VALID,24.9671,VALID,10,VALID,0,
2011-09-16, 00:27:04,VALID,1004.99,VALID,0,INVALID,163.685,VALID,0,VALID,24.9866,VALID,356,VALID,0,
2011-09-16, 00:28:04,VALID,1005.01,VALID,0,INVALID,163.708,VALID,0,VALID,24.9866,VALID,353,VALID,0,
2011-09-16, 00:29:04,VALID,1005.01,VALID,0,INVALID,163.701,VALID,0,VALID,25.006,VALID,351,VALID,0,
2011-09-16, 00:30:04,VALID,1005.01,VALID,0,INVALID,163.685,VALID,0,VALID,25.045,VALID,4,VALID,0,
2011-09-16, 00:31:04,VALID,1005.02,VALID,0,INVALID,163.685,VALID,0,VALID,25.0839,VALID,345,VALID,0,
2011-09-16, 00:32:04,VALID,1005.08,VALID,0,INVALID,163.678,VALID,0,VALID,25.1248,VALID,355,VALID,0,
2011-09-16, 00:33:04,VALID,1005.04,VALID,0,INVALID,163.685,VALID,0,VALID,25.1229,VALID,355,VALID,0,
2011-09-16, 00:34:04,VALID,1005.09,VALID,0,INVALID,163.685,VALID,0,VALID,25.1229,VALID,24,VALID,0,
2011-09-16, 00:35:04,VALID,1005.11,VALID,0.5,INVALID,163.655,VALID,0,VALID,25.1637,VALID,24,VALID,0,
2011-09-16, 00:36:04,VALID,1005.12,VALID,0,INVALID,163.685,VALID,0,VALID,25.121,VALID,24,VALID,0,
2011-09-16, 00:37:04,VALID,1005.16,VALID,0,INVALID,163.67,VALID,0,VALID,25.1618,VALID,24,VALID,0,
2011-09-16, 00:38:04,VALID,1005.19,VALID,0,INVALID,163.678,VALID,0,VALID,25.1618,VALID,24,VALID,0,
2011-09-16, 00:39:04,VALID,1005.16,VALID,0,INVALID,163.685,VALID,0,VALID,25.1404,VALID,24,VALID,0,
2011-09-16, 00:40:04,VALID,1005.14,VALID,0,INVALID,163.655,VALID,0,VALID,25.1813,VALID,24,VALID,0,
2011-09-16, 00:41:04,VALID,1005.06,VALID,0,INVALID,163.693,VALID,0,VALID,25.2027,VALID,24,VALID,0,
2011-09-16, 00:42:04,VALID,1005.05,VALID,0,INVALID,163.639,VALID,0,VALID,25.1813,VALID,24,VALID,0,
2011-09-16, 00:43:04,VALID,1005.02,VALID,0,INVALID,163.685,VALID,0,VALID,25.1832,VALID,24,VALID,0,
2011-09-16, 00:44:04,VALID,1005.01,VALID,0.5,INVALID,163.685,VALID,0,VALID,25.1618,VALID,24,VALID,0,
2011-09-16, 00:45:04,VALID,1004.99,VALID,0,INVALID,163.662,VALID,0,VALID,25.1813,VALID,358,VALID,0,
2011-09-16, 00:46:04,VALID,1004.97,VALID,0,INVALID,163.67,VALID,0.100563,VALID,25.2007,VALID,357,VALID,0,
2011-09-16, 00:47:04,VALID,1004.89,VALID,0,INVALID,163.685,VALID,0,VALID,25.2202,VALID,299,VALID,0,
2011-09-16, 00:48:04,VALID,1004.87,VALID,0,INVALID,163.685,VALID,0,VALID,25.2786,VALID,283,VALID,0,
2011-09-16, 00:49:04,VALID,1004.93,VALID,0,INVALID,163.647,VALID,0,VALID,25.339,VALID,277,VALID,0,
2011-09-16, 00:50:04,VALID,1004.98,VALID,0,INVALID,163.655,VALID,0,VALID,25.3584,VALID,134,VALID,0,
2011-09-16, 00:51:04,VALID,1005.04,VALID,0,INVALID,163.647,VALID,0,VALID,25.337,VALID,143,VALID,0,
2011-09-16, 00:52:04,VALID,1005.04,VALID,0,INVALID,163.67,VALID,0,VALID,25.3565,VALID,162,VALID,0,
2011-09-16, 00:53:04,VALID,1004.99,VALID,0,INVALID,163.67,VALID,0,VALID,25.3584,VALID,159,VALID,0,
2011-09-16, 00:54:04,VALID,1004.97,VALID,0,INVALID,163.662,VALID,0,VALID,25.3176,VALID,175,VALID,0,
2011-09-16, 00:55:04,VALID,1004.99,VALID,0,INVALID,163.655,VALID,0,VALID,25.3176,VALID,146,VALID,0,
2011-09-16, 00:56:04,VALID,1005.04,VALID,0,INVALID,163.685,VALID,0,VALID,25.337,VALID,177,VALID,0,
2011-09-16, 00:57:04,VALID,1005.07,VALID,0,INVALID,163.678,VALID,0,VALID,25.3176,VALID,137,VALID,0,
2011-09-16, 00:58:04,VALID,1005.06,VALID,0,INVALID,163.67,VALID,0,VALID,25.1423,VALID,140,VALID,0,
2011-09-16, 00:59:04,VALID,1005.06,VALID,0,INVALID,163.693,VALID,0,VALID,25.1034,VALID,155,VALID,0,
2011-09-16, 01:00:04,VALID,1005,VALID,0,INVALID,163.701,VALID,0,VALID,25.0236,VALID,114,VALID,0,
2011-09-16, 01:01:04,VALID,1004.98,VALID,0,INVALID,163.678,VALID,0,VALID,24.9885,VALID,154,VALID,0,
2011-09-16, 01:02:04,VALID,1004.9,VALID,0,INVALID,163.655,VALID,0,VALID,24.9476,VALID,161,VALID,0,
2011-09-16, 01:03:04,VALID,1004.85,VALID,0,INVALID,163.723,VALID,0,VALID,24.9282,VALID,131,VALID,0,
2011-09-16, 01:04:04,VALID,1004.83,VALID,0,INVALID,163.708,VALID,0,VALID,24.9495,VALID,145,VALID,0,
2011-09-16, 01:05:04,VALID,1004.81,VALID,0,INVALID,163.701,VALID,0,VALID,24.9087,VALID,142,VALID,0,
2011-09-16, 01:06:04,VALID,1004.81,VALID,0,INVALID,163.693,VALID,0,VALID,24.8697,VALID,142,VALID,0,
2011-09-16, 01:07:04,VALID,1004.77,VALID,0,INVALID,163.701,VALID,0,VALID,24.8308,VALID,142,VALID,0,
2011-09-16, 01:08:04,VALID,1004.72,VALID,0,INVALID,163.701,VALID,0,VALID,24.8113,VALID,142,VALID,0,
2011-09-16, 01:09:04,VALID,1004.72,VALID,0,INVALID,163.701,VALID,0,VALID,24.7724,VALID,163,VALID,0,
2011-09-16, 01:10:04,VALID,1004.69,VALID,0,INVALID,163.723,VALID,0,VALID,24.7529,VALID,163,VALID,0,
2011-09-16, 01:11:04,VALID,1004.63,VALID,0,INVALID,163.746,VALID,0,VALID,24.7335,VALID,163,VALID,0,
2011-09-16, 01:12:04,VALID,1004.64,VALID,0,INVALID,163.701,VALID,0,VALID,24.7353,VALID,163,VALID,0,
2011-09-16, 01:13:04,VALID,1004.6,VALID,0,INVALID,163.701,VALID,0,VALID,24.675,VALID,163,VALID,0,
2011-09-16, 01:14:04,VALID,1004.58,VALID,0,INVALID,163.731,VALID,0,VALID,24.6769,VALID,163,VALID,0,
2011-09-16, 01:15:04,VALID,1004.59,VALID,0,INVALID,163.716,VALID,0,VALID,24.6574,VALID,163,VALID,0,
2011-09-16, 01:16:04,VALID,1004.57,VALID,0,INVALID,163.716,VALID,0,VALID,24.6166,VALID,163,VALID,0,
2011-09-16, 01:17:04,VALID,1004.58,VALID,0,INVALID,163.693,VALID,0,VALID,24.5777,VALID,80,VALID,0,
2011-09-16, 01:18:04,VALID,1004.61,VALID,0,INVALID,163.731,VALID,0,VALID,24.599,VALID,79,VALID,0,
2011-09-16, 01:19:04,VALID,1004.67,VALID,0,INVALID,163.723,VALID,0,VALID,24.5582,VALID,79,VALID,0,
2011-09-16, 01:20:04,VALID,1004.71,VALID,0,INVALID,163.708,VALID,0,VALID,24.5582,VALID,79,VALID,0,
2011-09-16, 01:21:04,VALID,1004.72,VALID,0,INVALID,163.754,VALID,0,VALID,24.5193,VALID,97,VALID,0,
2011-09-16, 01:22:04,VALID,1004.76,VALID,0,INVALID,163.731,VALID,0,VALID,24.5601,VALID,90,VALID,0,
2011-09-16, 01:23:04,VALID,1004.72,VALID,0,INVALID,163.762,VALID,0,VALID,24.5777,VALID,116,VALID,0,
2011-09-16, 01:24:04,VALID,1004.68,VALID,0,INVALID,163.708,VALID,0,VALID,24.5564,VALID,112,VALID,0,
2011-09-16, 01:25:04,VALID,1004.68,VALID,0,INVALID,163.739,VALID,0,VALID,24.5777,VALID,126,VALID,0,
2011-09-16, 01:26:04,VALID,1004.66,VALID,0,INVALID,163.723,VALID,0,VALID,24.6166,VALID,132,VALID,0,
2011-09-16, 01:27:04,VALID,1004.66,VALID,0,INVALID,163.739,VALID,0,VALID,24.6361,VALID,123,VALID,0,
2011-09-16, 01:28:04,VALID,1004.65,VALID,0,INVALID,163.754,VALID,0,VALID,24.6361,VALID,128,VALID,0,
2011-09-16, 01:29:04,VALID,1004.71,VALID,0,INVALID,163.739,VALID,0,VALID,24.6556,VALID,147,VALID,0,
2011-09-16, 01:30:04,VALID,1004.71,VALID,0,INVALID,163.701,VALID,0,VALID,24.6945,VALID,133,VALID,0,
2011-09-16, 01:31:04,VALID,1004.69,VALID,0,INVALID,163.693,VALID,0,VALID,24.6556,VALID,109,VALID,0,
2011-09-16, 01:32:04,VALID,1004.66,VALID,0,INVALID,163.708,VALID,0,VALID,24.6361,VALID,151,VALID,0,
2011-09-16, 01:33:04,VALID,1004.58,VALID,0,INVALID,163.708,VALID,0,VALID,24.638,VALID,124,VALID,0,
2011-09-16, 01:34:04,VALID,1004.57,VALID,0,INVALID,163.708,VALID,0,VALID,24.6166,VALID,125,VALID,0,
2011-09-16, 01:35:04,VALID,1004.54,VALID,0,INVALID,163.716,VALID,0,VALID,24.6166,VALID,127,VALID,0,
2011-09-16, 01:36:04,VALID,1004.51,VALID,0,INVALID,163.723,VALID,0,VALID,24.5972,VALID,112,VALID,0,
2011-09-16, 01:37:04,VALID,1004.53,VALID,0,INVALID,163.716,VALID,0,VALID,24.5777,VALID,110,VALID,0,
2011-09-16, 01:38:04,VALID,1004.54,VALID,0,INVALID,163.723,VALID,0,VALID,24.5777,VALID,110,VALID,0,
2011-09-16, 01:39:04,VALID,1004.61,VALID,0,INVALID,163.716,VALID,0,VALID,24.5388,VALID,109,VALID,0,
2011-09-16, 01:40:04,VALID,1004.63,VALID,0,INVALID,163.723,VALID,0.100563,VALID,24.498,VALID,105,VALID,0,
2011-09-16, 01:41:04,VALID,1004.68,VALID,0,INVALID,163.746,VALID,0,VALID,24.5193,VALID,122,VALID,0,
2011-09-16, 01:42:04,VALID,1004.71,VALID,0,INVALID,163.754,VALID,0,VALID,24.5193,VALID,114,VALID,0,
2011-09-16, 01:43:04,VALID,1004.73,VALID,0,INVALID,163.708,VALID,0,VALID,24.4998,VALID,110,VALID,0,
2011-09-16, 01:44:04,VALID,1004.71,VALID,0,INVALID,163.731,VALID,0,VALID,24.4804,VALID,79,VALID,0,
2011-09-16, 01:45:04,VALID,1004.69,VALID,0,INVALID,163.746,VALID,0,VALID,24.5017,VALID,90,VALID,0,
2011-09-16, 01:46:04,VALID,1004.64,VALID,0,INVALID,163.731,VALID,0,VALID,24.4609,VALID,69,VALID,0,
2011-09-16, 01:47:04,VALID,1004.55,VALID,0,INVALID,163.708,VALID,0,VALID,24.4804,VALID,133,VALID,0,
2011-09-16, 01:48:04,VALID,1004.53,VALID,0,INVALID,163.731,VALID,0,VALID,24.4804,VALID,139,VALID,0,
2011-09-16, 01:49:04,VALID,1004.57,VALID,0,INVALID,163.739,VALID,0,VALID,24.4804,VALID,104,VALID,0,
2011-09-16, 01:50:04,VALID,1004.62,VALID,0,INVALID,163.754,VALID,0,VALID,24.4804,VALID,104,VALID,0,
2011-09-16, 01:51:04,VALID,1004.64,VALID,0,INVALID,163.762,VALID,0,VALID,24.5017,VALID,119,VALID,0,
2011-09-16, 01:52:04,VALID,1004.63,VALID,0,INVALID,163.739,VALID,0,VALID,24.4998,VALID,102,VALID,0,
2011-09-16, 01:53:04,VALID,1004.6,VALID,0,INVALID,163.746,VALID,0,VALID,24.5017,VALID,76,VALID,0,
2011-09-16, 01:54:04,VALID,1004.6,VALID,0,INVALID,163.716,VALID,0,VALID,24.4998,VALID,82,VALID,0,
2011-09-16, 01:55:04,VALID,1004.6,VALID,0,INVALID,163.723,VALID,0,VALID,24.5193,VALID,118,VALID,0,
2011-09-16, 01:56:04,VALID,1004.55,VALID,0,INVALID,163.693,VALID,0,VALID,24.498,VALID,109,VALID,0,
2011-09-16, 01:57:04,VALID,1004.55,VALID,0.5,INVALID,163.723,VALID,0,VALID,24.5406,VALID,123,VALID,0,
2011-09-16, 01:58:04,VALID,1004.57,VALID,0,INVALID,163.716,VALID,0,VALID,24.4785,VALID,117,VALID,0,
2011-09-16, 01:59:04,VALID,1004.57,VALID,0,INVALID,163.731,VALID,0,VALID,24.4414,VALID,111,VALID,0,
2011-09-16, 02:00:04,VALID,1004.56,VALID,0,INVALID,163.777,VALID,0,VALID,24.3617,VALID,109,VALID,0,
2011-09-16, 02:01:04,VALID,1004.55,VALID,0.5,INVALID,163.739,VALID,0,VALID,24.3849,VALID,102,VALID,0,
2011-09-16, 02:02:04,VALID,1004.51,VALID,0,INVALID,163.739,VALID,0,VALID,24.3246,VALID,89,VALID,0,
2011-09-16, 02:03:04,VALID,1004.48,VALID,0,INVALID,163.746,VALID,0,VALID,24.2681,VALID,93,VALID,0,
2011-09-16, 02:04:04,VALID,1004.4,VALID,0,INVALID,163.769,VALID,0,VALID,24.2078,VALID,81,VALID,0,
2011-09-16, 02:05:04,VALID,1004.39,VALID,0,INVALID,163.739,VALID,0,VALID,24.1671,VALID,93,VALID,0,
2011-09-16, 02:06:04,VALID,1004.39,VALID,0,INVALID,163.754,VALID,0,VALID,24.1689,VALID,98,VALID,0,
2011-09-16, 02:07:04,VALID,1004.31,VALID,0,INVALID,163.769,VALID,0,VALID,24.1494,VALID,116,VALID,0,
2011-09-16, 02:08:04,VALID,1004.23,VALID,0.5,INVALID,163.746,VALID,0,VALID,24.1707,VALID,105,VALID,0,
2011-09-16, 02:09:04,VALID,1004.17,VALID,0,INVALID,163.754,VALID,0,VALID,24.1689,VALID,130,VALID,0,
2011-09-16, 02:10:04,VALID,1004.11,VALID,0,INVALID,163.754,VALID,0,VALID,24.1689,VALID,115,VALID,0,
2011-09-16, 02:11:04,VALID,1004.12,VALID,0,INVALID,163.754,VALID,0,VALID,24.1494,VALID,89,VALID,0,
2011-09-16, 02:12:04,VALID,1004.15,VALID,0,INVALID,163.746,VALID,0,VALID,24.1513,VALID,91,VALID,0,
2011-09-16, 02:13:04,VALID,1004.18,VALID,0,INVALID,163.769,VALID,0,VALID,24.0892,VALID,119,VALID,0,
2011-09-16, 02:14:04,VALID,1004.17,VALID,0,INVALID,163.792,VALID,0,VALID,24.091,VALID,80,VALID,0,
2011-09-16, 02:15:04,VALID,1004.14,VALID,0,INVALID,163.784,VALID,0,VALID,24.1105,VALID,118,VALID,0,
2011-09-16, 02:16:04,VALID,1004.11,VALID,0,INVALID,163.777,VALID,0,VALID,24.0892,VALID,30,VALID,0,
2011-09-16, 02:17:04,VALID,1004.11,VALID,0,INVALID,163.762,VALID,0.100563,VALID,24.091,VALID,73,VALID,0,
2011-09-16, 02:18:04,VALID,1004.13,VALID,0.5,INVALID,163.739,VALID,0,VALID,24.0697,VALID,76,VALID,0,
2011-09-16, 02:19:04,VALID,1004.07,VALID,0,INVALID,163.762,VALID,0,VALID,24.0716,VALID,91,VALID,0,
2011-09-16, 02:20:04,VALID,1004.03,VALID,0,INVALID,163.754,VALID,0.100563,VALID,24.0308,VALID,14,VALID,0,
2011-09-16, 02:21:04,VALID,1004,VALID,0,INVALID,163.739,VALID,0.100563,VALID,24.0114,VALID,25,VALID,0,
2011-09-16, 02:22:04,VALID,1004.04,VALID,0,INVALID,163.784,VALID,0,VALID,23.9919,VALID,96,VALID,0,
2011-09-16, 02:23:04,VALID,1004.06,VALID,0,INVALID,163.754,VALID,0.100563,VALID,24.0326,VALID,140,VALID,0,
2011-09-16, 02:24:04,VALID,1004.06,VALID,0,INVALID,163.754,VALID,0.100563,VALID,24.0326,VALID,107,VALID,0,
2011-09-16, 02:25:04,VALID,1004.06,VALID,0,INVALID,163.754,VALID,0.100563,VALID,24.0326,VALID,133,VALID,0,
2011-09-16, 02:26:04,VALID,1003.99,VALID,0,INVALID,163.762,VALID,0.100563,VALID,24.0114,VALID,103,VALID,0,
2011-09-16, 02:27:04,VALID,1003.93,VALID,0,INVALID,163.777,VALID,0.100563,VALID,24.0326,VALID,103,VALID,0,
2011-09-16, 02:28:04,VALID,1003.86,VALID,0,INVALID,163.784,VALID,0.100563,VALID,24.0114,VALID,102,VALID,0,
2011-09-16, 02:29:04,VALID,1003.84,VALID,0,INVALID,163.784,VALID,0.100563,VALID,24.0132,VALID,38,VALID,0,
2011-09-16, 02:30:04,VALID,1003.85,VALID,0,INVALID,163.769,VALID,0,VALID,24.0132,VALID,37,VALID,0,
2011-09-16, 02:31:04,VALID,1003.89,VALID,0,INVALID,163.8,VALID,0,VALID,23.9937,VALID,33,VALID,0,
2011-09-16, 02:32:04,VALID,1003.91,VALID,0,INVALID,163.784,VALID,0,VALID,23.9955,VALID,17,VALID,0,
2011-09-16, 02:33:04,VALID,1003.93,VALID,0,INVALID,163.769,VALID,0,VALID,23.9548,VALID,22,VALID,0,
2011-09-16, 02:34:04,VALID,1003.95,VALID,0,INVALID,163.807,VALID,0,VALID,23.9353,VALID,22,VALID,0,
2011-09-16, 02:35:04,VALID,1003.98,VALID,0,INVALID,163.769,VALID,0,VALID,23.9159,VALID,17,VALID,0,
2011-09-16, 02:36:04,VALID,1003.99,VALID,0,INVALID,163.784,VALID,0,VALID,23.9566,VALID,25,VALID,0,
2011-09-16, 02:37:04,VALID,1003.95,VALID,0,INVALID,163.746,VALID,0,VALID,23.9159,VALID,16,VALID,0,
2011-09-16, 02:38:04,VALID,1003.96,VALID,0,INVALID,163.746,VALID,0,VALID,23.9159,VALID,26,VALID,0,
2011-09-16, 02:39:04,VALID,1003.92,VALID,0,INVALID,163.784,VALID,0,VALID,23.8769,VALID,13,VALID,0,
2011-09-16, 02:40:04,VALID,1003.9,VALID,0,INVALID,163.784,VALID,0,VALID,23.8769,VALID,14,VALID,0,
2011-09-16, 02:41:04,VALID,1003.92,VALID,0,INVALID,163.754,VALID,0,VALID,23.8575,VALID,4,VALID,0,
2011-09-16, 02:42:04,VALID,1003.92,VALID,0,INVALID,163.769,VALID,0,VALID,23.8982,VALID,1,VALID,0,
2011-09-16, 02:43:04,VALID,1003.9,VALID,0,INVALID,163.792,VALID,0,VALID,23.838,VALID,23,VALID,0,
2011-09-16, 02:44:04,VALID,1003.88,VALID,0,INVALID,163.769,VALID,0,VALID,23.8575,VALID,23,VALID,0,
2011-09-16, 02:45:04,VALID,1003.88,VALID,0,INVALID,163.769,VALID,0,VALID,23.838,VALID,22,VALID,0,
2011-09-16, 02:46:04,VALID,1003.91,VALID,0,INVALID,163.784,VALID,0,VALID,23.8398,VALID,22,VALID,0,
2011-09-16, 02:47:04,VALID,1003.92,VALID,0,INVALID,163.769,VALID,0,VALID,23.838,VALID,22,VALID,0,
2011-09-16, 02:48:04,VALID,1003.9,VALID,0,INVALID,163.777,VALID,0,VALID,23.8185,VALID,22,VALID,0,
2011-09-16, 02:49:04,VALID,1003.89,VALID,0,INVALID,163.784,VALID,0,VALID,23.8203,VALID,22,VALID,0,
2011-09-16, 02:50:04,VALID,1003.89,VALID,0,INVALID,163.823,VALID,0,VALID,23.7814,VALID,22,VALID,0,
2011-09-16, 02:51:04,VALID,1003.88,VALID,0,INVALID,163.784,VALID,0,VALID,23.7425,VALID,6,VALID,0,
2011-09-16, 02:52:04,VALID,1003.92,VALID,0,INVALID,163.807,VALID,0,VALID,23.7407,VALID,4,VALID,0,
2011-09-16, 02:53:04,VALID,1003.94,VALID,0,INVALID,163.8,VALID,0,VALID,23.8416,VALID,6,VALID,0,
2011-09-16, 02:54:04,VALID,1003.95,VALID,0,INVALID,163.762,VALID,0,VALID,23.8203,VALID,2,VALID,0,
2011-09-16, 02:55:04,VALID,1003.94,VALID,0.5,INVALID,163.769,VALID,0,VALID,23.8009,VALID,357,VALID,0,
2011-09-16, 02:56:05,VALID,1003.93,VALID,0,INVALID,163.784,VALID,0.100563,VALID,23.7601,VALID,53,VALID,0,
2011-09-16, 02:57:05,VALID,1003.88,VALID,0,INVALID,163.777,VALID,0,VALID,23.7583,VALID,17,VALID,0,
2011-09-16, 02:58:05,VALID,1003.85,VALID,0,INVALID,163.777,VALID,0.100563,VALID,23.7796,VALID,23,VALID,0,
2011-09-16, 02:59:05,VALID,1003.8,VALID,0,INVALID,163.8,VALID,0.100563,VALID,23.7955,VALID,39,VALID,0,
2011-09-16, 03:00:05,VALID,1003.78,VALID,0,INVALID,163.769,VALID,0.100563,VALID,23.8362,VALID,17,VALID,0,
2011-09-16, 03:01:05,VALID,1003.73,VALID,0,INVALID,163.792,VALID,0.100563,VALID,23.838,VALID,18,VALID,0,
2011-09-16, 03:02:05,VALID,1003.73,VALID,0,INVALID,163.769,VALID,0,VALID,23.9159,VALID,26,VALID,0,
2011-09-16, 03:03:05,VALID,1003.71,VALID,0,INVALID,163.762,VALID,0,VALID,24.0132,VALID,15,VALID,0,
2011-09-16, 03:04:05,VALID,1003.71,VALID,0,INVALID,163.784,VALID,0,VALID,24.0326,VALID,39,VALID,0,
2011-09-16, 03:05:05,VALID,1003.72,VALID,0,INVALID,163.769,VALID,0.100563,VALID,24.0326,VALID,35,VALID,0,
2011-09-16, 03:06:05,VALID,1003.66,VALID,0,INVALID,163.769,VALID,0.100563,VALID,24.0114,VALID,4,VALID,0,
2011-09-16, 03:07:05,VALID,1003.65,VALID,0,INVALID,163.777,VALID,0,VALID,24.0521,VALID,83,VALID,0,
2011-09-16, 03:08:05,VALID,1003.61,VALID,0,INVALID,163.754,VALID,0,VALID,24.1105,VALID,10,VALID,0,
2011-09-16, 03:09:05,VALID,1003.58,VALID,0,INVALID,163.762,VALID,0,VALID,24.1689,VALID,27,VALID,0,
2011-09-16, 03:10:05,VALID,1003.56,VALID,0,INVALID,163.754,VALID,0,VALID,24.1689,VALID,344,VALID,0,
2011-09-16, 03:11:05,VALID,1003.57,VALID,0,INVALID,163.754,VALID,0.100563,VALID,24.1689,VALID,8,VALID,0,
2011-09-16, 03:12:05,VALID,1003.58,VALID,0,INVALID,163.739,VALID,0.100563,VALID,24.206,VALID,288,VALID,0,
2011-09-16, 03:13:05,VALID,1003.59,VALID,0,INVALID,163.762,VALID,0.100563,VALID,24.2468,VALID,355,VALID,0,
2011-09-16, 03:14:05,VALID,1003.56,VALID,0,INVALID,163.746,VALID,0.100563,VALID,24.206,VALID,26,VALID,0,
2011-09-16, 03:15:05,VALID,1003.59,VALID,0,INVALID,163.754,VALID,0,VALID,24.2273,VALID,354,VALID,0,
2011-09-16, 03:16:05,VALID,1003.57,VALID,0,INVALID,163.777,VALID,0,VALID,24.2291,VALID,352,VALID,0,
2011-09-16, 03:17:05,VALID,1003.58,VALID,0,INVALID,163.762,VALID,0,VALID,24.2291,VALID,350,VALID,0,
2011-09-16, 03:18:05,VALID,1003.57,VALID,0,INVALID,163.769,VALID,0,VALID,24.2486,VALID,14,VALID,0,
2011-09-16, 03:19:05,VALID,1003.54,VALID,0,INVALID,163.746,VALID,0,VALID,24.2875,VALID,338,VALID,0,
2011-09-16, 03:20:05,VALID,1003.61,VALID,0,INVALID,163.739,VALID,0,VALID,24.2681,VALID,350,VALID,0,
2011-09-16, 03:21:05,VALID,1003.66,VALID,0,INVALID,163.769,VALID,0,VALID,24.2681,VALID,359,VALID,0,
2011-09-16, 03:22:05,VALID,1003.71,VALID,0,INVALID,163.769,VALID,0,VALID,24.2078,VALID,8,VALID,0,
2011-09-16, 03:23:05,VALID,1003.75,VALID,0,INVALID,163.762,VALID,0,VALID,24.1902,VALID,353,VALID,0,
2011-09-16, 03:24:05,VALID,1003.79,VALID,0,INVALID,163.754,VALID,0,VALID,24.1494,VALID,11,VALID,0,
2011-09-16, 03:25:05,VALID,1003.84,VALID,0,INVALID,163.769,VALID,0,VALID,24.13,VALID,79,VALID,0,
2011-09-16, 03:26:05,VALID,1003.87,VALID,0,INVALID,163.731,VALID,0,VALID,24.1105,VALID,88,VALID,0,
2011-09-16, 03:27:05,VALID,1003.87,VALID,0,INVALID,163.746,VALID,0,VALID,24.0734,VALID,94,VALID,0,
2011-09-16, 03:28:05,VALID,1003.87,VALID,0,INVALID,163.777,VALID,0,VALID,24.0326,VALID,172,VALID,0,
2011-09-16, 03:29:05,VALID,1003.85,VALID,0,INVALID,163.754,VALID,0,VALID,24.0345,VALID,146,VALID,0,
2011-09-16, 03:30:05,VALID,1003.79,VALID,0,INVALID,163.746,VALID,0,VALID,24.0734,VALID,124,VALID,0,
2011-09-16, 03:31:05,VALID,1003.77,VALID,0,INVALID,163.762,VALID,0,VALID,24.0521,VALID,118,VALID,0,
2011-09-16, 03:32:05,VALID,1003.72,VALID,0,INVALID,163.777,VALID,0,VALID,24.0734,VALID,173,VALID,0,
2011-09-16, 03:33:05,VALID,1003.72,VALID,0,INVALID,163.723,VALID,0,VALID,24.1123,VALID,119,VALID,0,
2011-09-16, 03:34:05,VALID,1003.68,VALID,0,INVALID,163.777,VALID,0,VALID,24.0929,VALID,172,VALID,0,
2011-09-16, 03:35:05,VALID,1003.66,VALID,0,INVALID,163.777,VALID,0,VALID,24.1123,VALID,181,VALID,0,
2011-09-16, 03:36:05,VALID,1003.65,VALID,0,INVALID,163.762,VALID,0,VALID,24.0929,VALID,193,VALID,0,
2011-09-16, 03:37:05,VALID,1003.7,VALID,0,INVALID,163.792,VALID,0,VALID,24.0929,VALID,39,VALID,0,
2011-09-16, 03:38:05,VALID,1003.75,VALID,0,INVALID,163.746,VALID,0,VALID,24.0929,VALID,119,VALID,0,
2011-09-16, 03:39:05,VALID,1003.85,VALID,0,INVALID,163.754,VALID,0,VALID,24.1318,VALID,96,VALID,0,
2011-09-16, 03:40:05,VALID,1003.89,VALID,0,INVALID,163.762,VALID,0,VALID,24.1318,VALID,48,VALID,0,
2011-09-16, 03:41:05,VALID,1003.89,VALID,0,INVALID,163.754,VALID,0,VALID,24.0929,VALID,85,VALID,0,
2011-09-16, 03:42:05,VALID,1003.86,VALID,0,INVALID,163.754,VALID,0,VALID,24.1123,VALID,21,VALID,0,
2011-09-16, 03:43:05,VALID,1003.85,VALID,0,INVALID,163.746,VALID,0,VALID,24.091,VALID,358,VALID,0,
2011-09-16, 03:44:05,VALID,1003.8,VALID,0,INVALID,163.754,VALID,0,VALID,24.0929,VALID,11,VALID,0,
2011-09-16, 03:45:05,VALID,1003.79,VALID,0,INVALID,163.762,VALID,0,VALID,24.1318,VALID,94,VALID,0,
2011-09-16, 03:46:05,VALID,1003.76,VALID,0,INVALID,163.739,VALID,0,VALID,24.13,VALID,9,VALID,0,
2011-09-16, 03:47:05,VALID,1003.76,VALID,0,INVALID,163.739,VALID,0,VALID,24.1689,VALID,359,VALID,0,
2011-09-16, 03:48:05,VALID,1003.76,VALID,0,INVALID,163.754,VALID,0,VALID,24.1884,VALID,14,VALID,0,
2011-09-16, 03:49:05,VALID,1003.74,VALID,0,INVALID,163.723,VALID,0.100563,VALID,24.2662,VALID,21,VALID,0,
2011-09-16, 03:50:05,VALID,1003.73,VALID,0,INVALID,163.716,VALID,0,VALID,24.2857,VALID,354,VALID,0,
2011-09-16, 03:51:05,VALID,1003.75,VALID,0,INVALID,163.746,VALID,0.100563,VALID,24.2839,VALID,38,VALID,0,
2011-09-16, 03:52:05,VALID,1003.76,VALID,0,INVALID,163.739,VALID,0.100563,VALID,24.2644,VALID,17,VALID,0,
2011-09-16, 03:53:05,VALID,1003.73,VALID,0,INVALID,163.746,VALID,0,VALID,24.2255,VALID,54,VALID,0,
2011-09-16, 03:54:05,VALID,1003.78,VALID,0,INVALID,163.754,VALID,0.100563,VALID,24.2236,VALID,27,VALID,0,